{"data":{"norad_id":69942,"epoch":"2026-09-19T23:17:52.487232Z","epoch_age_seconds":63529,"freshness":"FRESH","line1":"1 69942U 26156CB  26262.97074638  .00001548  00000+0  15624-3 0  9990","line2":"2 69942  97.7413 162.2101 0006716 265.7579  94.2873 14.92500589 11139","mean_motion":14.92500589,"eccentricity":0.0006716,"inclination_deg":97.7413,"raan_deg":162.2101,"arg_perigee_deg":265.7579,"mean_anomaly_deg":94.2873,"bstar":0.00015624,"rev_number":1113,"period_min":96.48237398451,"perigee_km":585.46161712582,"apogee_km":594.82140882445,"semimajor_km":6968.2785129751,"source":"CELESTRAK","updated_at":"2026-09-20T09:00:25.210228Z"}}